This demonstration page uses our WeatherBlox Daily Observations layout. Learn more.

Left ArrowRight Arrow

Hourly Observations for September 3, 2018

Temp ( °F °C ) Dew Point ( °F °C ) Humidity (%) Winds ( mph kmh ) Pressure ( in mb ) Visibility ( mi km ) Precip ( " mm )
12:38 am 00:38 Cloudy 68 20 66 19 94 94 SE 8 13 29.97 1015 10 16 0.00 0.00
12:57 am 00:57 Cloudy 67 19.4 65 18.3 93 93 SE 6 9 30.00 1016 10 16 0.00 0.00
1:57 am 01:57 Mostly Cloudy 66 18.9 64 17.8 93 93 E 5 7 29.99 1016 10 16 0.00 0.00
2:54 am 02:54 Cloudy 64 18 64 18 100 100 Calm 30.00 1016 10 16 0.00 0.00
2:57 am 02:57 Cloudy 65 18.3 64 17.8 97 97 ENE 3 6 30.00 1016 10 16 0.00 0.00
3:08 am 03:08 Cloudy 64 18 64 18 100 100 E 5 7 30.00 1016 10 16 0.00 0.00
3:57 am 03:57 Cloudy 66 18.9 65 18.3 96 96 SE 6 9 30.00 1016 10 16 0.00 0.00
4:57 am 04:57 Cloudy 66 18.9 65 18.3 96 96 SSE 3 6 30.01 1016 10 16 0.00 0.00
5:23 am 05:23 Cloudy 66 19 64 18 94 94 ESE 6 9 30.00 1016 10 16 0.00 0.00
5:57 am 05:57 Cloudy 66 18.9 65 18.3 96 96 ESE 6 9 30.01 1016 10 16 0.00 0.00
6:06 am 06:06 Cloudy 66 19 64 18 94 94 ESE 3 6 30.00 1016 10 16 0.00 0.00
6:57 am 06:57 Cloudy 66 18.9 65 18.3 96 96 ESE 6 9 30.02 1017 10 16 0.00 0.00
7:07 am 07:07 Cloudy 66 19 64 18 94 94 ESE 5 7 30.00 1016 10 16 0.00 0.00
7:57 am 07:57 Cloudy 66 18.9 65 18.3 96 96 SE 6 9 30.03 1017 10 16 0.00 0.00
8:57 am 08:57 Cloudy 67 19.4 66 18.9 97 97 SSE 8 13 30.04 1017 8 13 0.00 0.00
9:57 am 09:57 Cloudy 68 20 66 18.9 93 93 S 8 13 30.05 1018 10 16 0.00 0.00
10:43 am 10:43 Cloudy 70 21 66 19 88 88 SSE 7 11 30.00 1016 10 16 0.00 0.00
10:57 am 10:57 Cloudy 70 21.1 67 19.4 90 90 SSE 9 15 30.04 1017 10 16 0.00 0.00
11:41 am 11:41 Cloudy 70 21 66 19 88 88 S 8 13 30.00 1016 10 16 0.00 0.00
11:57 am 11:57 Cloudy 70 21.1 66 18.9 87 87 S 8 13 30.05 1018 10 16 0.00 0.00
12:25 pm 12:25 Cloudy 72 22 66 19 83 83 S 10 17 30.00 1016 10 16 0.00 0.00
12:57 pm 12:57 Cloudy 72 22.2 67 19.4 84 84 SSE 13 20 30.04 1017 10 16 0.00 0.00
1:30 pm 13:30 Cloudy 73 23 66 19 78 78 S 12 19 30.00 1016 10 16 0.00 0.00
1:57 pm 13:57 Cloudy 73 22.8 67 19.4 81 81 S 8 13 30.03 1017 10 16 0.00 0.00
2:47 pm 14:47 Cloudy 73 23 64 18 74 74 SSE 10 17 29.97 1015 10 16 0.00 0.00
2:57 pm 14:57 Cloudy 74 23.3 65 18.3 74 74 SE 12 19 30.01 1016 10 16 0.00 0.00
3:16 pm 15:16 Cloudy 73 23 66 19 78 78 S 13 20 29.97 1015 10 16 0.00 0.00
3:57 pm 15:57 Cloudy 72 22.2 67 19.4 84 84 SSE 9 15 30.02 1017 10 16 0.00 0.00
4:57 pm 16:57 Cloudy 72 22.2 67 19.4 84 84 SSE 12 19 30.00 1016 10 16 0.00 0.00
5:57 pm 17:57 Cloudy 72 22.2 68 20 87 87 SSE 8 13 30.00 1016 10 16 0.00 0.00
6:57 pm 18:57 Cloudy 72 22.2 68 20 87 87 SE 3 6 30.01 1016 10 16 0.00 0.00
8:57 pm 20:57 Cloudy 70 21.1 69 20.6 97 97 SE 7 11 30.01 1016 10 16 0.01 0.25
9:16 pm 21:16 Partly Cloudy 70 21 68 20 94 94 ESE 6 9 29.97 1015 10 16 0.00 0.00
9:57 pm 21:57 Mostly Cloudy 69 20.6 68 20 96 96 ESE 5 7 30.02 1017 10 16 0.00 0.00
10:11 pm 22:11 Cloudy 70 21 68 20 94 94 ESE 7 11 29.97 1015 10 16 0.00 0.00
10:46 pm 22:46 Cloudy 70 21 70 21 100 100 SE 12 19 29.97 1015 10 16 0.00 0.00
10:57 pm 22:57 Cloudy 70 21.1 69 20.6 97 97 SSE 15 24 30.01 1016 10 16 0.00 0.00
11:25 pm 23:25 Partly Cloudy 68 20 66 19 94 94 SSE 12 19 29.97 1015 10 16 0.00 0.00
11:57 pm 23:57 Mostly Cloudy 67 19.4 66 18.9 97 97 SSE 10 17 30.00 1016 10 16 0.00 0.00

Powered by AerisWeather